Wind_Speed
12 12 12 11 11 10 10 9 9 8 7 6 5 5 4 4 4 5 5 5 5 4 4 4 5 6 6 5 5 5 5 5 6 6 5 4 4 5 5 6 6 6 6 5 6 6 6 7 8 8 8 8 8 8 8 8 8 9 9 9 9 10 10 11 11 12 12 12 13 14 14 14 14 14 14 13 13 13 13 14 14 15 17 17 17
11 10 9 9 8 8 7 7 6 6 6 5 5 5 5 6 6 7 7 6 5 4 3 3 4 5 5 5 5 5 5 5 5 6 6 4 4 4 5 6 6 6 6 6 7 7 6 7 7 8 8 8 9 9 9 9 9 10 10 11 11 11 11 12 13 13 13 13 14 14 15 15 14 14 14 14 13 13 13 14 15 16 17 16 16
8 7 7 6 6 6 5 5 5 5 5 5 5 6 6 6 7 7 7 5 5 4 3 4 5 4 4 4 4 4 4 4 4 5 6 6 5 5 5 5 6 6 7 7 7 8 8 8 8 8 8 8 9 9 9 9 10 10 11 11 11 12 12 12 13 12 13 13 13 14 14 14 14 14 14 13 13 13 13 14 15 17 17 17 16
5 5 4 4 4 4 4 4 4 4 4 4 5 6 6 6 7 8 7 5 4 4 4 6 6 6 5 4 4 4 4 4 4 5 6 6 6 6 6 6 6 7 7 8 8 9 9 9 9 9 9 9 9 9 9 9 10 10 11 11 11 12 12 12 12 12 13 13 13 14 14 15 15 15 15 14 13 13 13 14 16 18 19 18 18
3 3 2 3 3 3 4 4 4 3 3 4 5 6 6 7 8 8 7 6 4 4 5 6 7 7 6 6 6 5 5 5 5 5 6 7 7 7 7 7 7 7 8 8 9 9 9 9 9 9 9 9 9 9 10 10 10 11 11 12 12 12 12 12 12 13 13 14 14 15 15 16 16 17 17 16 16 15 15 15 16 19 21 20 20
3 2 2 2 2 3 4 3 3 3 3 4 5 6 6 7 8 8 7 6 5 5 5 6 6 6 6 7 7 6 6 6 6 6 6 7 7 7 8 8 8 8 8 8 9 9 9 9 9 9 9 9 10 10 10 10 11 12 12 12 13 13 14 14 14 14 15 16 16 17 17 18 18 19 19 19 18 17 17 17 17 20 22 23 22
3 3 3 3 3 3 3 2 2 2 2 3 5 6 7 7 8 8 8 6 5 4 5 5 5 6 6 7 7 7 7 7 7 7 7 7 7 7 8 8 8 9 9 9 9 9 9 10 10 10 10 9 10 10 10 11 11 12 13 13 14 14 14 15 15 16 16 17 18 18 19 19 19 20 20 20 19 19 18 17 18 19 20 23 24
4 4 4 4 4 3 2 2 2 2 2 3 5 5 6 7 8 9 9 7 6 4 5 5 5 5 5 5 6 6 6 6 7 7 7 7 7 8 8 9 9 10 10 10 10 9 9 10 10 10 10 9 10 10 11 12 12 13 14 15 15 15 16 16 16 17 17 18 18 19 19 19 19 19 19 19 19 19 18 18 18 18 17 18 20
5 5 5 5 3 2 2 2 2 2 2 3 4 5 6 6 7 8 9 9 7 5 5 5 4 3 4 5 6 6 6 6 7 8 8 8 8 9 10 10 11 12 12 11 11 11 10 10 10 10 10 10 10 11 12 13 14 15 16 16 17 17 17 17 17 18 18 18 18 18 17 17 17 17 17 17 17 17 17 17 17 17 16 15 16
6 5 5 4 3 3 2 2 1 1 2 4 4 5 6 6 6 7 9 9 8 6 5 4 3 3 4 5 6 7 7 6 7 8 9 9 10 10 11 12 13 13 13 13 13 12 12 11 11 11 10 10 11 11 12 14 15 16 17 18 18 17 17 16 16 16 16 16 16 15 15 15 15 16 16 16 16 16 16 16 16 16 16 16 16
6 5 5 5 3 3 3 2 1 1 2 4 4 4 5 6 6 6 7 8 8 8 7 6 4 4 5 5 6 7 7 7 8 9 10 10 11 11 12 12 13 13 12 13 13 13 12 12 11 11 10 9 10 12 13 14 16 16 17 17 16 15 14 13 13 13 13 13 13 13 14 14 14 14 15 16 16 17 16 17 18 17 17 16 15
6 5 5 5 4 4 3 2 1 2 2 3 3 4 5 6 5 6 7 7 7 7 8 8 6 4 5 6 6 7 8 8 8 9 10 10 11 11 11 11 12 11 11 12 12 12 12 11 11 10 9 9 10 12 13 15 15 15 15 14 14 13 12 11 11 10 10 11 11 12 13 14 14 14 14 15 16 17 17 18 18 18 17 16 15
6 5 5 5 4 4 4 3 3 3 2 2 3 4 6 6 5 6 7 7 7 7 7 8 7 5 5 6 6 5 5 6 8 9 10 10 11 11 11 11 10 10 11 12 11 10 10 10 10 9 9 9 10 12 14 15 13 13 13 12 13 13 13 11 11 10 10 10 10 11 12 12 13 13 13 14 15 16 17 19 20 19 18 16 15
6 5 5 5 5 4 4 4 4 4 4 2 3 4 6 6 6 5 6 7 7 7 8 8 6 5 5 6 7 7 5 6 8 8 9 9 10 10 11 11 11 11 12 12 11 10 10 10 10 9 9 9 11 12 14 14 12 12 13 13 13 14 14 13 12 11 10 10 10 10 10 11 12 13 13 14 15 17 20 21 21 19 18 17 16
6 5 4 4 4 4 4 5 5 5 5 4 4 4 5 5 5 5 6 7 6 7 8 9 8 6 5 4 4 5 4 9 12 8 7 8 8 9 10 11 11 11 12 11 10 10 10 10 10 10 9 10 11 12 13 12 11 12 13 13 14 15 17 16 14 13 12 12 12 11 12 12 13 14 15 16 17 19 21 22 22 20 19 18 18
7 5 5 4 4 4 5 5 4 4 5 5 4 4 5 4 4 5 6 7 7 7 8 8 9 8 5 1 1 2 2 7 12 10 10 10 9 9 9 10 11 10 10 9 9 10 10 9 10 10 10 10 10 11 12 10 10 12 12 14 14 15 18 18 17 16 16 16 15 14 14 14 15 16 16 17 19 21 22 23 23 22 21 20 20
8 6 6 5 5 5 5 4 4 4 4 4 4 4 4 3 3 4 5 7 7 7 7 7 8 8 6 2 1 2 1 5 8 8 11 12 11 11 9 9 8 7 8 8 8 9 8 8 8 9 9 8 9 10 10 9 11 13 12 14 15 16 18 19 19 20 20 20 19 17 17 16 17 17 17 18 20 21 22 23 24 24 23 22 22
9 8 7 7 6 5 5 5 4 3 4 4 4 4 3 2 3 4 4 6 7 7 7 6 6 8 8 5 3 1 2 4 3 4 9 12 12 13 12 10 8 6 7 8 8 8 8 8 8 8 8 8 8 9 10 9 10 12 13 14 15 15 17 18 19 20 21 22 22 21 19 18 18 18 18 18 20 22 23 24 24 25 25 24 24
10 9 8 8 7 6 5 5 4 3 4 4 4 4 2 1 2 3 3 5 6 6 7 6 6 7 7 5 5 3 3 3 1 1 5 7 12 15 14 12 9 8 8 7 8 8 7 8 7 7 8 8 8 8 10 10 10 11 13 14 15 16 15 16 18 18 19 21 22 23 22 20 19 18 18 19 20 21 23 24 25 26 27 26 26
10 10 9 8 7 6 5 5 5 5 4 4 3 3 2 2 2 2 2 3 5 6 6 6 6 7 7 6 6 6 5 3 3 3 0 2 8 12 14 14 11 10 10 8 7 6 7 8 6 7 8 8 8 9 11 10 9 11 13 13 15 16 15 15 16 17 17 18 19 21 21 21 20 19 19 19 20 21 22 24 25 26 27 27 27
9 9 9 8 6 6 5 5 5 5 4 3 3 3 3 2 2 1 1 2 4 4 5 5 6 7 8 8 8 8 7 4 4 5 2 0 3 5 11 14 11 11 11 8 6 5 7 8 6 6 8 9 9 10 11 11 10 11 12 13 14 15 16 15 15 16 16 17 17 18 19 20 20 20 19 19 19 20 21 23 24 26 27 28 28
9 9 8 7 6 5 6 6 5 5 4 4 4 4 3 2 2 2 1 2 3 4 4 4 5 6 8 8 9 9 7 3 5 7 3 1 1 3 8 10 7 10 12 8 6 6 7 8 6 5 7 8 9 10 11 11 10 11 12 13 14 15 15 15 16 16 16 16 16 17 18 18 18 19 19 19 19 19 20 22 23 25 27 28 29
9 9 9 8 7 6 6 6 5 5 5 5 4 4 3 3 3 3 3 3 4 4 4 4 4 5 6 7 8 9 7 5 8 9 5 3 2 4 8 8 6 8 12 10 6 6 7 8 6 4 6 7 8 10 11 11 10 11 12 14 15 15 15 15 16 17 16 16 17 17 17 17 17 17 18 18 18 18 19 21 22 24 25 27 29
10 10 10 9 8 7 7 6 6 6 6 6 5 5 4 4 4 4 4 5 5 5 4 4 4 4 4 5 6 7 8 8 10 10 7 5 3 4 7 7 5 7 11 11 8 6 7 7 5 3 4 6 7 9 12 12 12 12 13 14 14 15 14 15 16 16 17 17 17 17 17 17 16 16 16 17 18 18 19 20 21 23 24 26 28
11 10 10 9 9 8 7 7 7 7 7 7 6 6 5 5 5 5 5 5 4 4 4 4 4 4 4 4 5 6 7 8 10 10 6 3 3 4 5 5 4 6 9 10 9 7 7 8 5 2 3 5 7 9 12 14 14 13 13 12 13 13 13 14 14 15 16 17 17 17 16 16 16 16 16 16 17 18 19 20 21 22 23 25 27
12 11 9 9 9 8 8 7 7 7 8 8 7 6 6 6 6 5 5 4 4 4 4 4 4 4 3 3 4 5 6 7 8 9 6 4 3 3 5 6 4 6 9 8 8 7 9 9 6 3 4 6 8 10 12 14 15 14 13 11 11 12 12 13 13 14 16 17 17 17 16 16 15 16 16 16 16 17 19 19 20 21 22 24 25
13 12 10 9 9 9 9 8 7 7 8 8 8 7 7 7 7 6 5 5 5 5 4 4 3 3 2 3 3 4 5 5 5 7 6 5 5 4 5 5 3 5 7 7 7 8 9 10 7 5 7 8 10 11 12 14 14 14 13 12 12 12 13 14 14 14 15 16 16 16 16 15 15 16 16 16 16 16 18 19 20 21 22 23 24
12 13 12 10 10 9 9 9 8 8 8 8 8 8 8 8 8 8 7 7 6 5 5 5 4 3 2 3 3 3 4 4 3 5 6 5 4 4 5 5 3 3 4 4 6 5 8 10 7 6 9 11 11 12 12 14 14 14 14 13 13 14 14 16 15 14 15 16 16 15 15 15 15 15 15 16 16 16 17 18 20 21 21 22 23
11 12 12 11 10 9 9 9 9 8 8 8 8 8 9 9 9 9 9 8 7 6 6 6 5 4 4 3 3 4 4 3 2 3 5 5 3 3 4 4 3 2 1 2 3 3 6 10 9 8 11 12 11 12 13 14 14 13 13 13 14 14 15 15 15 14 15 15 16 16 15 14 14 15 15 15 15 15 16 17 19 20 21 22 23
11 11 11 11 11 10 10 9 9 9 8 9 9 8 9 10 10 10 9 9 8 8 8 7 7 6 6 5 4 4 4 3 2 2 3 4 3 3 3 4 4 3 1 1 2 3 6 10 11 11 13 12 11 12 14 15 14 13 13 13 13 13 13 14 14 16 16 16 16 16 14 13 14 14 14 14 15 15 15 16 18 20 21 21 22
12 11 11 11 10 10 10 10 10 10 10 10 9 9 10 10 10 11 10 10 10 9 9 8 8 7 7 6 5 4 4 4 3 2 3 4 4 4 4 4 5 5 4 2 2 4 9 12 13 13 13 12 12 13 15 15 14 13 13 12 12 11 12 14 16 17 17 16 15 15 15 14 14 14 15 15 15 15 15 16 17 19 20 21 21
13 13 12 12 12 11 11 11 11 11 11 11 11 10 10 10 11 11 11 10 11 10 9 9 8 8 8 7 7 6 5 4 4 3 3 4 5 6 6 6 6 7 7 4 4 8 13 14 14 14 13 13 13 14 16 16 16 15 14 13 12 12 14 16 17 16 16 16 15 15 15 15 15 15 15 16 16 16 16 16 17 18 19 20 20
14 14 14 13 13 12 12 12 12 12 12 12 11 11 11 11 11 11 11 11 11 11 10 9 9 8 9 9 8 7 6 6 6 5 5 5 6 7 8 8 8 8 8 6 5 10 14 14 13 13 13 14 15 16 16 18 19 18 16 15 15 16 17 17 16 15 15 15 15 15 16 16 16 16 16 16 16 17 17 17 16 17 18 19 20
14 15 15 14 14 14 13 12 12 13 13 13 12 12 12 12 12 11 11 12 12 11 10 10 9 8 9 9 9 8 8 8 8 8 8 8 8 8 8 8 8 8 8 8 7 8 13 15 15 14 14 15 17 18 18 19 21 20 18 18 18 18 18 18 16 16 16 16 16 16 16 16 17 17 17 17 16 16 17 18 17 17 17 18 19
14 15 15 15 14 14 14 13 13 13 14 14 14 14 13 13 13 12 12 12 12 11 11 11 9 9 9 9 9 9 9 10 10 10 10 10 9 9 9 8 9 9 9 10 9 9 12 16 16 17 17 17 18 19 19 20 20 20 20 20 20 19 19 20 19 18 17 16 17 16 16 17 17 18 18 17 17 16 17 18 18 18 17 18 18
16 16 16 16 15 15 15 15 15 14 14 14 14 15 15 14 14 14 13 13 13 12 12 11 10 10 10 11 10 9 9 11 12 12 12 12 12 12 12 11 10 10 10 10 11 11 12 15 18 19 18 19 21 21 21 21 20 20 20 20 20 21 22 22 22 20 19 18 17 17 16 16 18 19 19 18 17 17 17 18 19 19 18 17 17
17 17 17 17 17 17 17 16 16 15 15 14 15 15 16 15 15 14 14 14 14 14 13 13 12 11 12 12 11 10 10 12 12 12 12 12 12 13 13 12 12 12 12 12 13 14 14 16 19 20 20 21 23 23 22 21 21 22 22 21 22 22 24 25 25 25 23 21 18 17 16 16 17 18 18 17 17 17 18 19 21 19 17 17 17
18 18 18 19 19 19 18 18 17 16 16 16 16 16 16 16 16 16 15 15 15 15 15 14 13 13 12 12 11 11 12 13 13 13 12 12 12 13 13 13 13 14 15 15 16 16 16 17 18 21 22 23 24 24 24 23 23 24 23 23 25 26 26 26 27 28 27 25 21 18 16 16 17 17 17 17 17 18 19 20 20 18 15 15 15
18 18 18 18 18 18 19 19 19 18 18 18 17 17 17 18 18 18 17 16 16 16 16 16 15 15 15 14 13 13 13 13 14 14 14 13 14 14 15 15 16 17 18 18 18 17 17 17 18 20 22 24 24 25 25 25 25 24 20 20 25 28 27 27 29 29 29 27 24 21 20 20 21 21 21 21 19 19 19 18 16 14 13 13 13
16 16 16 17 17 17 18 19 19 19 19 19 20 19 19 19 20 20 19 18 18 17 18 18 17 17 17 17 16 15 15 15 15 15 15 15 16 17 17 17 18 18 19 19 18 18 18 18 19 21 21 23 25 25 26 26 24 23 20 18 22 27 27 27 29 29 28 27 26 25 26 26 26 26 26 25 23 20 18 15 13 12 12 12 11
16 16 15 16 15 15 16 17 18 18 19 20 20 21 21 22 22 22 21 20 20 19 19 19 19 18 18 18 18 17 17 16 16 16 16 16 17 18 18 18 18 19 19 19 20 20 19 18 20 20 20 21 24 24 24 25 23 23 23 21 22 25 25 26 29 29 27 24 26 29 31 30 30 30 28 26 24 21 18 15 13 11 11 11 11
18 17 16 16 17 17 17 17 18 19 19 20 21 21 22 23 24 24 24 23 22 21 21 21 20 20 19 19 18 18 19 19 18 18 18 18 19 19 20 19 19 20 20 21 21 21 20 19 20 20 18 20 23 23 23 25 25 24 25 23 22 24 24 24 27 30 28 23 23 29 34 32 31 31 29 27 25 22 19 17 14 12 11 11 11
17 16 16 16 16 16 16 17 18 19 20 21 21 22 22 23 24 24 25 25 24 23 23 22 22 21 21 20 20 19 20 20 21 21 21 21 21 21 21 21 21 21 22 23 23 23 21 20 21 20 18 20 24 25 25 26 25 24 24 23 22 23 21 19 20 25 29 26 24 29 34 34 31 30 30 28 25 23 21 19 16 13 12 11 11
12 13 13 13 12 12 13 13 14 16 17 19 20 22 22 22 22 24 24 25 25 24 24 23 23 23 22 22 21 21 21 21 21 22 22 22 22 21 21 21 21 22 22 23 24 24 23 22 21 21 21 22 25 26 25 25 24 24 24 25 24 23 22 20 19 23 29 30 27 28 33 34 31 29 30 29 26 25 22 19 16 13 12 12 12
8 9 10 10 9 8 9 9 9 9 10 12 15 18 21 21 22 22 23 24 24 24 24 23 24 23 23 23 23 23 23 22 22 23 23 23 22 22 22 22 22 22 21 22 23 23 24 24 23 24 25 25 25 25 26 25 25 24 25 26 26 24 24 23 23 27 31 31 28 27 30 33 29 27 30 29 25 23 20 17 16 14 13 12 12
4 5 5 5 4 4 5 5 5 4 4 6 9 11 13 17 19 20 20 21 22 22 22 22 22 22 23 23 24 24 24 24 24 24 25 25 24 24 24 24 24 24 23 23 23 23 24 24 25 27 27 27 27 27 28 26 25 25 25 26 26 26 27 27 28 31 32 30 27 22 23 28 27 26 29 28 23 20 18 17 18 16 14 12 11
2 2 2 2 1 1 2 3 5 5 5 6 7 6 6 8 11 14 16 17 18 18 19 20 20 21 21 21 22 23 23 23 23 23 24 24 24 24 25 25 26 26 25 25 25 25 25 25 26 28 28 28 28 29 28 26 25 25 25 25 26 26 28 29 30 31 31 30 25 16 16 25 28 25 27 25 21 22 22 21 20 18 15 13 11
1 2 1 1 1 1 0 2 5 7 7 6 5 5 5 5 6 9 11 12 13 14 14 15 15 16 16 16 17 18 19 20 20 20 20 21 22 22 23 24 25 26 27 26 25 25 26 26 27 27 27 27 26 26 25 24 24 24 24 25 26 25 26 26 27 29 29 28 24 17 16 24 27 23 24 24 23 25 27 24 21 19 16 13 11
2 1 0 2 2 2 2 3 5 6 6 6 5 4 3 3 4 6 9 10 11 11 11 11 11 12 12 12 13 14 16 18 18 18 17 17 19 20 21 22 24 25 27 27 26 26 27 26 26 26 25 25 23 23 23 23 23 22 22 24 25 24 22 19 19 25 28 28 26 21 18 21 23 21 22 24 25 26 26 25 22 19 15 13 12
3 3 3 4 5 5 5 5 5 6 6 8 9 8 6 4 4 5 8 10 11 11 11 10 10 11 11 11 12 13 14 15 16 15 15 16 17 19 19 20 21 24 26 26 26 27 27 26 25 25 24 23 23 24 25 24 23 22 22 24 24 22 21 19 19 23 28 29 26 17 13 17 19 18 19 22 24 25 25 22 20 18 17 17 17
5 6 6 6 6 6 7 8 8 6 6 7 9 10 10 9 8 8 8 9 11 11 11 10 9 9 9 10 9 10 11 12 13 13 14 15 16 17 18 18 20 23 24 23 24 24 25 25 25 25 25 25 25 25 25 24 24 23 23 24 23 22 22 23 23 19 17 19 19 13 11 17 19 18 18 16 16 19 20 18 19 22 22 22 21
Wind_Direction
110 108 105 100 96 96 98 98 96 93 90 85 83 76 65 48 28 17 12 9 1 344 321 299 286 288 301 321 334 332 323 317 325 333 330 299 286 292 298 303 308 309 305 304 305 308 309 311 315 315 314 314 312 312 312 314 316 316 317 316 315 315 314 314 312 310 310 310 309 307 306 304 303 306 308 310 311 310 307 301 295 290 288 285 282
108 103 100 97 95 98 99 96 92 86 81 75 67 56 44 36 27 22 18 13 3 354 349 336 320 305 304 315 323 326 324 322 330 341 346 335 318 312 310 314 319 320 320 320 318 317 314 310 310 311 310 309 308 312 317 316 314 314 316 315 314 313 312 311 307 307 309 307 306 305 305 305 306 309 310 311 311 310 307 302 297 291 289 289 289
110 102 97 96 97 100 98 96 91 82 76 66 52 41 37 33 26 21 15 7 355 342 336 336 337 329 317 318 315 312 317 322 335 350 358 357 352 345 338 335 337 341 341 340 338 336 335 331 326 322 319 316 313 314 314 311 310 310 309 308 308 307 306 305 303 305 307 307 307 307 307 308 308 308 309 311 310 310 307 304 302 298 294 292 291
119 110 101 99 103 101 98 98 89 81 73 59 46 36 34 29 20 12 3 1 350 329 323 324 327 328 321 319 318 315 316 319 332 351 1 3 3 1 2 360 358 1 1 359 356 353 350 347 344 340 337 335 332 329 326 323 321 319 316 314 313 312 311 308 309 311 310 310 311 310 310 310 310 310 310 311 310 309 306 305 305 302 299 297 295
135 130 116 110 114 108 103 97 87 82 70 54 41 34 29 20 14 9 360 356 344 321 316 316 316 320 320 319 321 322 323 327 333 338 346 353 358 3 4 4 4 5 7 6 3 1 358 354 352 350 349 349 348 348 346 345 342 340 337 334 332 331 328 322 321 322 321 321 321 321 320 319 319 318 318 318 316 312 308 308 307 304 301 299 298
167 164 151 140 135 119 107 95 86 78 61 44 34 29 22 13 12 17 13 2 347 323 315 315 314 319 323 321 325 326 327 334 336 334 338 342 348 356 359 358 357 357 358 360 359 358 356 352 351 349 351 353 354 354 353 352 351 349 347 345 342 341 338 335 334 333 332 331 330 328 327 325 323 322 321 319 316 311 308 308 306 304 304 305 303
185 181 169 157 146 125 107 93 90 75 50 31 26 25 19 11 10 19 22 14 1 337 324 323 315 317 322 322 326 326 327 335 340 340 339 337 340 346 352 353 350 349 348 349 351 350 348 346 345 344 346 350 351 351 350 349 348 347 344 342 340 338 337 335 335 335 333 332 330 328 326 324 321 320 319 316 313 311 309 309 305 303 305 306 305
182 179 171 161 148 128 115 109 102 74 44 25 22 20 17 16 13 13 17 17 15 360 345 338 321 314 322 329 335 330 329 335 341 345 339 335 339 340 342 345 342 340 341 342 343 344 342 339 338 339 341 343 344 343 342 341 339 338 336 334 333 331 331 331 331 332 332 331 330 328 325 323 321 319 317 315 315 316 315 314 310 307 305 302 303
170 172 171 165 155 146 156 142 107 62 34 23 18 10 8 14 13 10 11 13 12 1 352 347 332 318 325 339 350 346 339 336 335 337 332 330 333 333 335 336 335 334 334 334 336 338 337 335 334 335 338 339 339 338 336 336 335 334 332 330 329 326 324 324 325 327 329 330 329 327 326 324 323 321 321 321 321 322 320 318 316 313 312 310 313
171 178 181 180 174 177 186 172 122 53 24 13 4 356 356 1 6 11 12 11 10 1 347 337 322 317 328 335 344 345 340 336 333 328 325 325 326 329 333 333 334 333 332 333 333 334 334 335 335 334 338 337 335 336 336 337 338 339 339 337 334 330 327 325 324 325 326 328 329 328 329 329 328 326 327 328 327 327 326 324 324 324 326 328 329
184 191 197 196 193 197 203 196 161 12 4 359 348 337 339 344 353 8 16 15 15 13 2 348 324 309 318 324 326 330 334 334 329 328 328 328 328 329 331 333 333 333 334 335 335 336 337 338 339 340 342 340 338 339 339 341 344 347 347 345 343 340 337 333 329 328 328 330 333 334 334 333 332 332 336 337 336 336 335 334 334 335 337 337 336
195 200 204 203 207 216 220 234 266 301 329 344 336 327 330 336 344 357 10 19 23 22 14 8 355 322 315 322 321 318 324 331 329 330 333 333 333 331 331 332 331 334 337 337 337 339 342 343 344 344 344 347 349 348 350 352 354 353 353 353 355 357 354 349 346 342 340 339 339 340 340 339 339 341 344 345 344 343 342 342 342 342 343 344 343
203 205 206 208 220 227 232 248 268 280 288 320 328 327 330 333 338 347 359 13 27 28 16 9 6 358 344 346 357 349 332 338 340 337 334 331 330 328 328 328 328 334 335 334 336 339 343 344 344 345 345 350 355 358 0 2 2 360 0 3 8 12 12 7 3 358 352 351 350 349 349 349 349 350 351 351 351 351 352 352 352 351 353 355 354
211 214 212 216 229 237 242 249 262 272 266 277 314 327 327 329 336 344 355 4 17 26 18 13 14 15 4 360 15 24 22 11 360 345 330 323 322 322 322 322 324 331 329 328 332 336 339 338 337 342 344 349 353 357 3 5 6 5 6 8 11 20 22 18 14 9 7 6 3 0 359 360 1 1 2 2 2 2 1 1 1 2 4 6 4
217 227 226 229 240 246 251 252 261 271 260 264 295 318 322 329 346 352 356 2 13 22 18 18 22 19 11 14 12 11 24 10 3 6 354 335 329 326 322 320 322 324 323 325 331 334 336 333 332 336 342 349 351 355 1 5 8 8 9 11 13 24 28 25 23 21 18 16 12 10 9 10 11 11 11 10 8 7 6 7 8 9 10 10 9
217 228 236 244 250 249 252 250 257 266 256 261 282 307 317 326 355 7 7 8 14 21 20 21 29 28 22 50 351 2 35 345 344 4 18 12 2 350 333 325 329 329 326 328 333 336 337 334 333 336 342 349 351 355 359 5 12 10 10 13 16 28 32 30 30 28 25 22 19 18 17 16 15 15 14 12 9 8 9 11 11 12 12 12 11
218 226 236 243 244 244 247 243 248 258 254 256 274 299 310 315 349 15 20 16 14 19 25 29 36 39 41 65 21 21 209 316 331 351 11 24 25 14 5 351 345 346 344 342 343 343 342 341 342 343 345 348 350 354 358 7 16 13 11 14 18 28 33 31 29 28 26 24 23 22 21 19 17 16 15 12 9 9 10 11 13 13 13 13 11
219 223 232 238 239 243 247 244 244 252 253 251 267 291 292 291 341 6 20 20 16 19 29 38 42 42 44 52 43 43 272 324 345 334 354 16 25 24 25 15 2 357 352 348 350 352 351 351 355 355 354 354 353 356 0 7 16 14 11 13 18 25 31 29 27 25 24 22 21 21 21 20 17 16 14 12 9 9 9 10 12 13 14 14 11
217 223 232 237 240 246 250 247 246 254 256 250 263 278 257 248 324 343 10 25 23 23 27 35 41 39 42 40 32 29 340 338 26 327 339 360 9 18 26 25 20 11 1 348 342 351 358 357 2 7 7 4 358 360 5 8 14 14 11 11 15 20 25 26 24 21 21 20 19 18 18 18 17 14 12 11 10 9 8 9 10 12 13 14 13
217 223 231 237 242 247 248 248 247 252 257 250 247 241 222 240 301 315 358 25 22 22 22 25 29 28 31 29 25 19 7 30 62 22 6 312 349 6 15 24 36 28 12 355 340 343 354 356 0 13 18 13 6 7 10 12 14 13 10 9 11 13 16 19 18 16 16 17 16 15 15 15 14 13 11 9 9 8 7 8 10 10 12 14 14
216 221 227 231 239 245 247 251 249 248 254 244 219 207 217 252 278 277 314 354 356 2 5 9 16 19 21 19 19 17 21 61 50 16 40 182 333 339 352 6 26 27 19 4 348 344 349 354 358 15 21 16 11 10 13 15 15 12 9 6 6 8 10 11 10 8 8 10 11 10 10 11 11 11 10 9 7 8 7 7 9 10 11 13 15
216 215 217 221 231 244 248 252 251 242 240 230 208 202 220 254 261 252 261 304 326 331 333 340 356 13 20 14 12 15 22 33 360 356 1 340 318 301 334 348 355 8 17 14 354 342 337 342 352 15 23 17 12 10 11 14 13 8 4 2 0 1 3 4 3 1 1 3 3 3 3 5 7 7 7 6 5 5 5 6 7 8 10 12 15
222 215 214 217 229 244 249 252 251 237 228 222 214 214 230 254 261 263 267 285 307 307 302 307 325 354 9 8 8 10 9 351 340 342 324 296 301 308 334 347 335 347 9 15 2 349 341 338 343 8 23 18 11 5 4 5 4 359 355 355 354 355 356 356 357 357 358 359 358 358 357 357 360 2 2 2 2 2 2 2 4 5 7 10 13
225 220 219 222 231 240 245 250 247 238 227 223 223 224 236 255 258 260 268 281 293 288 280 283 295 321 344 359 3 1 359 353 345 339 321 298 294 302 331 354 345 341 4 13 9 6 5 357 352 356 5 8 2 357 358 356 351 346 344 347 349 349 350 350 352 355 356 357 356 355 354 353 352 354 356 357 358 359 358 359 0 2 4 6 10
226 224 224 226 231 237 243 249 248 242 236 229 229 229 237 252 255 255 265 275 279 276 277 279 284 301 318 342 354 356 358 354 351 351 346 325 303 306 337 357 342 342 3 12 9 10 14 9 8 1 337 347 349 351 355 353 348 342 338 342 347 346 345 347 348 350 351 353 353 352 352 351 349 349 349 350 352 353 354 355 356 358 360 2 6
235 233 231 231 236 241 244 250 247 243 240 235 235 234 239 248 250 252 258 261 265 274 281 279 277 290 299 316 337 349 355 352 359 7 12 17 351 326 350 359 347 349 360 7 12 17 19 17 23 34 4 356 353 351 352 352 350 347 341 338 339 339 339 341 342 343 345 346 348 350 351 350 348 347 346 344 345 346 348 350 351 354 356 357 1
247 244 241 239 244 247 248 251 246 240 238 237 239 240 243 248 247 247 248 250 260 269 270 264 265 275 280 298 319 340 350 346 356 10 13 10 2 353 360 6 358 350 355 2 10 13 16 20 33 40 17 6 359 353 349 348 345 343 341 334 330 332 333 333 332 334 339 342 344 347 349 351 349 347 345 342 341 341 341 343 345 349 351 353 356
253 245 242 243 248 251 253 255 251 243 238 235 237 239 243 247 245 245 249 251 255 259 256 254 261 270 276 294 305 322 346 341 336 360 4 356 357 360 1 9 15 351 346 357 1 357 3 11 19 19 9 3 359 358 353 347 340 333 330 328 327 329 329 329 330 333 338 340 342 342 343 346 346 345 344 341 340 338 337 337 339 342 346 348 351
251 243 241 245 249 251 256 260 256 248 239 234 236 242 247 250 248 249 253 253 253 255 256 258 265 271 273 284 294 308 337 343 315 341 355 350 351 360 360 13 27 19 351 342 335 314 342 357 357 352 356 357 355 358 356 349 342 335 329 327 327 328 330 334 336 338 339 339 340 340 338 338 338 339 340 339 339 338 335 333 334 337 341 343 346
246 241 240 244 249 252 256 260 258 252 244 241 243 249 253 253 252 252 252 252 252 256 262 266 271 273 271 272 278 291 323 336 323 331 346 346 348 1 11 17 16 11 348 288 308 296 317 336 339 338 345 349 347 350 353 351 347 343 340 338 335 333 335 339 340 339 337 337 338 340 338 333 331 333 336 336 336 336 335 332 331 333 336 339 342
246 244 242 244 249 253 255 258 258 253 251 252 253 254 257 258 255 253 251 251 252 257 265 269 271 272 271 270 267 275 299 315 317 317 325 333 334 338 353 359 360 353 329 292 270 302 310 317 325 332 338 340 339 342 346 349 350 347 345 346 344 339 337 336 335 334 335 335 335 337 338 334 330 330 333 335 335 335 335 332 330 330 332 334 338
248 248 248 248 250 254 257 259 259 256 255 257 257 256 258 261 261 258 254 252 253 258 264 267 267 269 273 275 272 269 278 290 296 298 303 317 319 318 323 329 334 336 330 307 261 296 314 318 320 328 334 333 331 336 340 343 347 345 341 342 341 336 334 332 331 333 336 336 334 331 330 329 328 328 330 334 336 336 336 334 330 329 330 331 333
252 252 253 254 254 257 261 264 264 262 261 261 259 257 258 260 264 264 260 257 257 259 262 262 261 264 270 275 275 269 268 273 278 282 287 298 304 304 305 308 312 318 323 314 282 296 316 325 324 325 330 329 327 332 336 337 341 342 340 340 339 337 338 337 334 333 335 335 332 329 326 323 322 322 324 328 333 337 338 336 332 328 327 328 329
254 254 257 259 258 257 260 265 267 267 268 267 261 256 256 258 262 265 265 263 262 262 263 261 260 260 263 268 270 267 266 268 272 276 281 288 293 296 297 298 302 305 307 308 299 294 308 320 324 323 326 327 324 327 332 332 336 340 340 341 343 344 347 347 340 334 332 331 329 329 328 324 321 319 317 319 324 331 336 337 334 328 325 326 326
252 254 259 262 260 258 258 262 266 268 270 270 264 257 254 256 260 265 268 267 267 268 269 269 268 263 260 265 269 270 270 269 271 275 280 283 288 294 298 298 301 306 303 300 298 295 300 310 316 318 322 322 320 323 328 329 332 336 337 342 346 350 353 352 345 336 330 326 324 324 327 327 327 326 322 317 316 320 328 333 333 329 324 323 323
249 253 258 262 262 260 260 263 265 265 266 267 265 260 257 257 260 263 267 269 270 272 274 276 276 271 269 271 272 275 278 277 276 279 282 283 286 290 294 295 299 307 309 304 303 300 298 301 307 313 317 316 317 321 325 327 330 333 336 341 346 349 353 353 349 344 337 329 322 317 318 321 324 327 327 322 316 315 319 326 329 328 324 321 321
251 254 256 260 262 263 264 266 266 264 263 263 264 263 262 261 261 262 265 268 271 273 274 276 276 275 276 276 275 276 280 283 283 285 287 287 287 290 293 294 297 303 307 307 307 305 299 298 303 310 313 313 315 318 321 323 326 329 334 338 341 344 347 347 347 348 346 339 332 324 318 320 324 327 329 328 323 319 317 320 324 325 323 321 320
252 254 255 259 264 266 266 267 267 266 266 265 263 261 261 261 262 262 264 265 268 270 272 274 273 274 276 278 279 277 278 283 286 287 291 291 291 292 294 296 299 302 304 305 306 306 302 301 303 306 309 311 312 314 318 319 318 321 328 333 335 339 342 342 342 345 346 344 343 341 339 337 335 332 330 328 324 321 318 319 321 322 323 323 321
252 255 257 260 265 269 269 269 268 268 269 268 266 263 259 259 260 262 264 265 266 267 270 273 274 274 273 274 276 276 276 280 283 287 290 291 291 291 292 295 298 301 303 305 305 304 301 301 302 303 305 308 309 310 313 315 314 316 322 327 329 333 337 337 336 338 340 340 341 343 345 344 340 336 333 329 327 324 323 323 322 323 327 327 323
247 254 258 262 266 269 270 271 271 271 271 270 269 267 263 260 260 261 263 264 265 268 270 274 276 276 275 275 275 276 276 278 281 285 288 290 292 292 293 296 298 299 303 305 306 304 302 300 300 301 302 304 306 309 312 314 314 315 320 319 317 323 329 331 331 332 333 336 337 337 337 338 336 334 333 333 333 334 332 329 326 324 328 330 327
241 246 253 258 262 264 267 270 272 273 273 272 272 271 269 266 264 264 264 264 265 268 270 274 277 277 276 275 276 277 278 281 283 285 288 291 292 292 294 297 298 299 301 303 302 301 299 297 297 299 299 300 305 309 311 314 313 313 315 312 310 317 321 322 326 328 328 331 333 331 330 331 331 331 332 332 335 339 337 333 327 320 321 326 328
240 241 246 252 257 261 265 268 271 273 273 273 273 273 273 273 270 268 268 268 268 269 271 273 276 277 276 276 277 278 279 280 282 284 288 291 292 292 294 295 296 296 296 296 297 297 295 292 292 295 293 295 303 307 306 310 313 313 314 312 310 314 316 316 321 325 325 326 326 324 324 326 327 328 330 331 333 337 337 334 329 318 310 315 323
240 240 244 250 256 261 266 270 275 276 275 275 275 275 275 276 275 272 270 270 270 270 272 274 276 279 280 280 282 282 282 282 283 285 288 290 291 291 290 290 291 292 290 289 291 292 290 286 288 290 285 287 299 305 304 308 312 312 313 312 308 308 310 309 310 315 318 320 318 316 318 321 323 325 326 327 330 333 333 333 331 319 303 300 308
243 241 243 248 253 259 264 271 279 282 281 278 274 272 272 274 276 275 272 271 270 270 271 273 277 280 282 284 286 287 288 289 289 290 292 293 295 293 291 290 288 288 287 286 286 288 288 285 285 286 285 286 293 300 303 305 308 310 310 309 306 304 303 299 295 300 310 314 313 310 312 316 320 322 322 323 327 330 331 332 332 321 303 291 291
241 237 237 239 242 251 258 266 278 291 299 294 283 276 272 271 273 274 273 271 271 271 272 274 277 281 283 285 288 290 293 295 295 296 298 299 300 300 298 296 293 292 290 288 287 287 287 285 281 282 288 289 288 296 304 305 303 304 304 305 306 304 301 298 294 299 307 310 308 305 306 311 318 320 319 322 327 330 331 333 333 325 309 292 282
219 224 226 230 229 236 250 260 271 290 310 305 299 295 286 277 273 272 272 272 271 272 273 275 277 280 283 285 287 290 294 297 298 299 300 302 303 303 303 301 300 299 298 295 294 292 289 286 281 282 290 293 291 297 305 304 300 300 301 302 304 304 301 299 298 301 305 307 306 301 298 306 316 317 316 323 331 331 331 332 331 328 317 300 282
188 173 129 104 128 161 219 239 243 247 256 268 279 291 298 292 283 277 273 270 270 271 272 273 275 277 280 283 285 290 294 297 300 302 303 304 304 303 303 303 302 303 301 299 299 298 296 293 289 290 295 298 298 300 303 305 304 304 303 301 301 302 300 300 301 302 305 308 307 296 285 301 313 313 313 324 330 325 325 328 329 328 322 309 290
212 185 149 64 55 83 207 246 245 244 246 257 269 267 267 279 295 300 291 278 273 273 273 276 279 280 283 285 286 290 293 295 299 304 307 308 305 302 302 302 302 302 299 297 298 298 298 297 296 296 298 299 300 300 303 306 304 305 305 301 301 302 299 297 298 301 305 307 306 296 283 296 309 309 310 320 323 318 320 323 324 327 327 319 301
55 77 103 353 352 339 310 297 288 275 272 291 307 295 269 271 292 314 314 302 289 282 278 279 281 283 286 289 290 291 291 293 298 304 308 307 302 300 300 300 301 299 295 294 295 296 297 297 298 298 298 299 299 299 300 301 300 302 300 296 300 302 295 290 290 295 300 301 302 298 284 290 306 308 305 313 315 313 316 319 319 322 326 325 316
63 67 70 58 40 21 7 357 338 321 316 319 312 298 287 290 298 310 315 312 305 301 298 293 287 284 284 287 293 295 295 296 298 300 302 299 295 296 298 299 299 295 292 294 297 297 297 298 298 297 296 295 295 295 297 296 297 298 294 294 300 296 284 278 279 287 295 298 302 303 281 283 303 306 302 308 309 306 310 316 318 318 316 316 315
74 74 77 78 71 51 39 38 33 14 351 337 320 302 288 283 289 298 301 305 309 311 313 309 300 293 289 287 289 292 293 295 295 296 298 296 294 296 298 298 296 294 294 298 301 300 299 298 296 295 294 293 293 293 294 295 296 296 294 296 298 289 277 276 277 280 289 296 303 306 284 284 297 298 296 303 305 303 308 311 311 311 309 307 307
Height
871 871 872 872 873 874 874 875 876 877 877 878 878 879 879 879 880 880 880 880 879 880 880 880 880 880 880 880 880 881 881 881 881 881 881 880 880 880 880 880 880 880 880 880 880 880 880 880 880 880 880 879 879 879 878 878 877 877 876 876 875 875 874 873 873 872 871 870 870 869 868 867 866 866 866 866 866 866 865 863 861 859 858 857 857
872 873 873 874 874 875 876 877 877 878 878 879 879 880 880 880 880 880 880 880 880 880 880 880 880 880 880 881 881 881 881 881 881 881 881 880 880 880 880 880 880 880 880 880 880 880 880 880 880 880 879 879 879 878 878 877 877 876 876 875 874 874 873 873 872 871 870 870 869 867 866 865 865 865 865 865 866 865 864 862 860 858 857 856 856
874 875 875 876 876 877 877 878 878 879 880 880 880 881 881 881 881 880 880 880 880 880 880 880 881 881 881 881 881 881 881 881 881 881 881 881 880 880 880 880 880 880 880 880 879 879 879 879 879 879 879 879 878 878 877 876 876 876 875 874 874 873 873 872 871 870 869 868 868 866 865 864 864 864 864 865 865 864 863 861 858 856 855 855 854
875 876 876 877 877 878 879 879 880 880 881 881 881 881 881 881 881 881 881 881 881 881 881 881 881 881 881 881 881 881 881 881 881 881 881 881 881 881 880 880 880 880 880 880 880 880 879 879 879 879 878 878 877 877 876 876 875 875 874 873 873 872 871 871 870 869 868 867 866 865 864 863 863 862 863 863 863 863 862 860 857 854 853 854 853
876 877 878 878 879 879 880 880 881 881 882 882 882 882 882 882 882 882 881 881 881 881 881 881 881 881 881 881 881 881 881 881 881 881 881 881 881 881 881 881 881 880 880 880 880 880 880 880 879 879 878 878 877 876 876 875 875 874 873 873 872 871 871 870 869 868 867 866 865 864 863 862 861 861 861 862 862 861 860 859 857 854 852 852 853
877 878 878 879 880 881 881 882 882 883 883 883 883 883 883 883 883 882 882 882 881 882 882 881 881 881 881 881 881 882 881 881 881 881 881 881 881 881 881 881 881 881 881 881 881 880 880 880 880 879 878 878 877 876 876 875 874 874 873 872 872 871 870 870 869 868 867 866 865 863 862 861 860 860 860 860 860 860 859 858 857 854 851 849 850
878 878 879 880 881 882 882 883 883 883 884 884 884 884 884 884 883 883 883 882 882 882 882 882 882 882 882 882 882 882 881 881 881 881 882 881 881 882 882 882 881 881 881 881 881 881 881 880 880 879 878 878 877 876 876 875 874 874 873 872 871 871 870 869 868 867 866 865 864 863 862 860 859 858 858 858 858 858 857 857 856 854 852 848 846
878 879 880 881 882 882 883 883 884 884 884 884 884 884 885 885 884 884 883 883 883 882 882 882 882 882 882 882 882 882 882 882 882 882 882 882 882 882 882 882 881 881 881 881 881 881 881 880 880 879 878 878 877 876 876 875 874 874 873 872 871 870 869 869 868 867 866 865 863 862 861 859 858 857 856 856 856 855 855 855 854 853 852 850 846
879 880 881 882 882 883 883 884 884 885 885 885 885 885 885 885 885 885 884 883 883 883 883 883 882 883 882 882 882 882 882 882 882 882 882 882 882 881 881 881 881 881 881 881 881 880 880 880 880 879 878 878 877 876 876 875 874 873 873 872 871 870 869 868 867 866 865 864 863 861 860 858 857 856 855 855 854 853 853 852 852 851 850 849 847
880 881 881 882 883 883 884 884 885 885 885 885 886 886 885 886 885 885 885 884 884 883 883 883 883 883 883 883 883 883 882 882 882 882 882 882 881 881 881 881 881 881 880 880 880 880 880 880 879 879 878 878 877 876 876 875 874 873 872 871 870 869 868 867 866 865 864 863 862 860 859 858 857 856 855 854 853 852 851 850 850 849 848 847 846
880 881 882 883 883 884 884 885 885 885 886 886 886 886 886 886 886 886 886 885 884 884 884 883 883 883 883 883 883 883 883 882 882 882 882 881 881 881 881 881 880 880 880 880 879 879 879 879 879 878 878 877 877 876 875 875 874 873 872 870 869 868 867 866 865 864 863 863 861 860 859 858 856 855 854 853 852 851 850 849 848 847 847 846 845
881 882 882 883 884 884 885 885 886 886 886 887 887 887 887 887 886 886 886 886 885 885 884 884 884 884 884 884 883 883 883 882 882 882 882 881 881 881 880 880 880 880 880 879 879 879 879 879 878 878 878 877 877 876 875 875 874 873 872 870 869 868 866 865 865 864 863 862 861 860 859 857 856 855 853 852 851 850 849 847 846 845 844 843 843
881 882 883 883 884 884 885 885 886 886 887 887 888 888 888 887 887 887 887 887 886 886 885 885 884 884 884 884 883 883 883 883 882 882 882 881 881 881 880 880 880 880 879 879 879 879 878 878 878 878 878 877 877 876 876 875 874 873 872 871 869 868 867 866 865 864 863 862 861 860 859 857 856 855 853 852 851 849 848 847 845 843 842 841 840
882 882 883 884 884 885 885 886 886 887 887 888 888 888 888 888 888 888 888 887 887 886 886 885 885 885 884 883 883 883 882 882 882 882 882 881 881 880 880 880 879 879 879 879 878 878 878 878 878 878 878 877 877 876 876 875 874 873 872 871 870 868 867 866 865 865 864 863 861 860 859 857 856 855 853 852 850 849 847 846 844 842 840 839 838
882 882 883 884 884 885 885 886 886 887 887 888 888 888 888 888 888 888 888 888 888 887 887 886 886 885 885 885 886 885 884 883 882 882 882 881 881 880 880 879 879 879 878 878 878 878 878 878 877 877 877 877 877 877 876 875 874 873 872 871 870 869 868 867 866 865 864 863 862 860 859 857 856 855 853 852 851 849 847 845 843 841 839 838 836
882 883 883 884 884 885 886 886 887 887 887 888 888 889 889 889 889 889 889 889 888 888 887 887 887 886 886 888 888 889 890 886 883 882 881 881 880 880 880 879 878 878 878 878 878 878 877 877 877 877 877 877 877 877 876 875 874 873 872 872 870 869 868 867 866 865 864 863 862 860 859 857 856 855 853 852 851 849 847 845 843 841 839 837 835
882 883 883 884 885 885 886 886 887 887 887 888 888 889 889 889 889 889 889 889 889 888 888 888 888 887 887 888 889 892 892 888 885 883 881 881 881 880 879 879 878 878 878 878 878 878 877 877 877 877 877 877 877 877 876 875 875 874 873 872 871 870 869 868 867 866 865 863 862 861 859 858 856 855 854 852 851 849 847 845 843 841 839 837 835
882 883 884 884 885 885 886 886 887 887 888 888 889 889 889 889 889 889 889 889 889 889 889 889 889 888 888 888 889 891 890 887 888 887 883 881 881 880 880 879 879 878 878 878 878 878 878 877 877 877 877 877 877 877 876 876 875 874 873 872 872 870 869 869 868 867 865 864 863 861 860 858 857 856 854 853 851 849 847 846 844 842 840 837 835
882 883 884 884 885 885 886 886 887 887 888 888 889 889 889 889 889 890 890 890 890 890 890 890 889 889 889 888 888 888 888 887 888 889 888 884 881 880 880 879 879 879 878 878 878 878 878 877 878 878 877 877 877 877 876 876 875 874 874 873 872 871 870 869 868 867 866 865 863 862 860 859 857 856 855 853 851 850 848 846 844 842 840 838 836
882 883 883 884 885 885 886 886 887 887 887 888 888 889 889 889 889 890 890 890 890 890 890 890 890 890 889 889 889 888 888 888 888 888 890 889 885 881 880 880 879 879 879 879 878 878 878 878 878 878 878 877 877 877 876 876 875 875 874 873 872 871 871 870 869 868 867 866 864 863 861 859 858 856 855 853 852 850 848 846 845 842 840 839 836
882 883 883 884 884 885 885 886 886 887 887 888 888 888 889 889 889 890 890 890 891 891 891 891 891 890 890 889 889 889 888 888 888 888 888 889 888 884 882 881 880 880 879 879 879 878 878 878 878 878 878 878 877 877 876 876 876 875 874 873 873 872 871 870 869 868 867 866 865 863 862 860 859 857 855 854 852 851 849 847 845 843 841 839 837
882 882 883 883 884 885 885 885 886 886 887 887 888 888 888 889 889 889 890 890 890 891 891 891 891 891 890 890 889 889 889 888 888 888 887 888 888 886 884 883 882 881 880 879 879 879 878 878 878 879 878 878 878 877 877 876 876 875 874 874 873 872 871 870 869 868 867 866 865 864 862 861 859 858 856 854 853 851 849 847 846 844 842 840 838
881 882 882 883 884 884 885 885 886 886 886 887 887 888 888 888 889 889 889 890 890 890 891 891 891 891 891 891 890 890 890 889 888 888 888 887 887 886 885 884 883 882 881 880 879 879 879 878 878 879 878 878 878 877 877 876 876 875 874 874 873 872 871 870 869 868 866 865 864 863 862 861 860 858 857 855 853 852 850 848 846 844 842 840 838
881 881 882 882 883 884 884 884 885 885 886 886 887 887 888 888 888 889 889 889 890 890 890 890 891 891 891 891 891 890 890 889 889 888 887 887 887 886 885 884 884 883 881 880 880 879 879 878 878 878 878 878 878 877 877 876 875 875 874 873 873 872 871 870 869 868 866 865 864 863 862 861 860 858 857 855 854 852 850 848 847 845 843 841 839
880 881 881 882 882 883 883 884 884 885 885 886 886 887 887 887 888 888 889 889 889 889 890 890 890 890 891 891 890 890 890 889 888 887 887 887 887 886 885 885 884 883 882 881 880 880 879 878 878 878 878 878 878 877 877 876 875 875 874 873 872 871 870 869 868 867 866 865 864 863 862 860 859 858 857 856 854 852 851 849 847 845 843 841 840
879 879 880 881 881 882 882 883 883 884 884 885 886 886 887 887 887 888 888 888 889 889 889 889 890 890 890 890 890 890 889 889 888 887 887 887 886 886 885 884 884 883 882 881 881 880 879 879 878 878 878 878 878 877 877 876 875 874 874 873 872 871 870 869 868 866 866 864 863 862 861 860 859 858 857 855 854 852 851 849 847 846 844 842 840
877 878 879 880 880 881 882 882 882 883 883 884 885 885 886 886 887 887 887 888 888 888 889 889 889 889 889 890 889 889 889 888 888 888 887 887 886 886 885 885 885 884 882 881 881 880 880 880 879 879 878 878 878 877 877 876 875 874 873 872 871 870 869 868 867 866 865 864 863 862 861 860 858 857 856 855 854 852 851 849 847 846 844 842 840
876 877 878 879 879 880 881 881 882 882 883 883 884 885 885 886 886 887 887 887 887 888 888 888 888 889 889 889 889 889 889 888 888 888 887 887 886 886 885 885 886 886 884 883 882 881 881 880 879 879 878 878 878 877 877 876 875 874 872 871 871 870 869 868 866 865 864 863 862 861 860 859 858 857 856 854 853 852 850 849 847 846 844 842 841
875 876 877 877 878 879 880 881 881 882 882 883 884 884 885 885 885 886 886 886 887 887 887 888 888 888 888 888 888 888 888 888 888 887 887 887 886 886 885 884 885 886 887 886 884 881 881 880 880 879 878 878 877 877 876 875 874 873 872 871 870 869 868 867 866 865 864 863 862 861 860 859 857 856 855 854 853 851 850 848 847 845 844 842 841
874 875 876 876 877 878 879 880 881 881 882 883 883 884 884 884 885 885 886 886 886 886 887 887 887 887 887 887 888 888 888 887 887 887 887 887 886 886 885 885 884 884 885 886 885 881 880 880 879 879 878 877 877 876 875 874 873 872 871 870 869 868 867 866 866 865 863 862 861 860 859 858 857 856 854 853 852 851 850 848 846 845 844 842 841
873 874 875 875 876 877 878 879 880 881 881 882 883 883 883 884 884 884 885 885 885 885 886 886 886 886 886 886 887 887 887 887 887 887 887 886 886 886 885 885 885 884 883 884 884 882 880 879 879 878 877 876 876 875 875 874 873 872 871 870 869 868 867 866 865 864 863 861 860 859 858 857 856 855 854 852 851 850 849 848 846 844 843 842 841
872 873 874 874 875 876 877 878 879 880 881 881 882 883 883 883 883 884 884 884 884 885 885 885 885 886 886 886 886 886 886 886 886 887 886 886 886 885 885 885 884 884 883 883 883 881 879 879 878 877 877 876 875 875 874 873 872 871 871 870 869 868 867 865 864 863 862 861 859 858 857 856 855 854 853 852 850 849 848 847 846 844 843 841 840
871 872 873 873 874 875 876 877 878 879 880 880 881 882 882 882 883 883 883 883 884 884 884 884 884 885 885 885 885 885 885 886 886 886 886 886 886 885 885 885 884 884 883 883 882 880 879 878 878 877 876 876 874 874 873 872 871 870 869 869 868 867 866 864 863 862 861 860 859 857 856 855 854 853 852 851 850 849 847 846 845 844 842 841 840
870 871 872 872 873 874 875 876 877 878 879 879 880 881 881 881 882 882 882 882 883 883 883 883 883 884 884 884 884 884 884 885 885 885 885 885 885 884 884 884 884 883 883 882 882 880 879 878 877 877 876 875 874 873 873 872 871 870 869 868 867 866 865 864 862 861 860 859 858 856 855 854 853 852 851 850 849 848 847 845 844 843 842 840 839
869 870 871 871 872 873 874 875 875 876 877 878 879 879 880 880 881 881 881 882 882 882 882 882 883 883 883 883 883 883 883 883 883 884 884 884 884 883 883 883 883 882 882 882 881 880 879 877 876 876 875 874 873 872 872 871 870 869 868 867 866 865 864 863 861 860 859 858 856 855 854 853 851 850 849 848 847 846 846 844 843 842 841 840 838
868 869 870 870 871 872 872 873 874 875 876 876 877 878 878 879 879 880 880 881 881 881 881 882 882 882 882 882 882 882 882 882 882 882 882 883 883 882 882 882 882 882 881 881 880 880 879 877 876 875 875 874 872 872 871 870 869 869 868 866 865 864 863 862 860 859 858 856 855 853 852 851 850 849 848 847 846 845 844 843 842 841 840 839 837
867 868 869 869 870 870 871 872 872 873 874 875 875 876 877 878 878 879 879 879 880 880 880 881 881 881 881 881 881 881 881 881 881 881 881 881 881 881 881 881 881 881 880 880 880 879 878 877 876 875 874 873 872 871 870 869 868 867 866 865 864 863 862 860 859 858 856 855 853 852 851 850 849 848 847 846 844 844 843 842 840 839 838 837 836
866 866 867 868 868 869 869 870 871 871 872 873 874 874 875 876 876 877 878 878 878 879 879 879 880 880 880 879 879 879 879 879 879 879 880 880 880 880 880 880 880 880 879 879 879 878 878 877 876 874 873 872 871 869 869 868 867 866 865 864 862 861 861 859 857 856 854 853 852 851 849 848 847 846 845 844 844 843 841 840 839 837 837 836 835
865 865 865 866 867 867 868 868 869 870 870 871 872 873 873 874 875 875 876 876 877 877 877 878 878 878 878 878 878 878 878 878 877 878 878 878 878 878 878 878 879 879 878 878 877 877 876 876 875 874 872 871 870 868 868 867 866 865 864 863 861 860 859 858 856 854 853 852 850 849 848 847 846 845 844 843 842 841 839 838 837 836 835 834 833
863 864 864 865 865 866 866 867 867 868 869 869 870 871 872 872 873 873 874 875 875 875 876 876 876 877 877 877 877 877 877 877 876 876 876 876 876 876 876 877 877 877 876 876 876 875 875 874 874 873 871 870 869 867 866 865 865 864 864 863 861 859 858 857 855 853 852 850 849 847 846 845 844 843 841 840 839 839 837 836 835 834 833 832 831
862 862 863 863 864 864 865 865 866 866 867 868 868 869 870 870 871 871 872 873 873 874 874 874 875 875 875 875 875 875 875 875 875 875 875 875 875 874 874 875 875 875 874 874 874 873 873 873 872 871 870 869 867 866 865 864 863 863 862 861 860 858 857 856 853 852 850 849 847 845 844 843 842 840 839 838 837 836 835 834 833 833 832 831 830
860 860 861 862 862 863 863 864 865 865 865 866 867 867 868 868 869 870 870 871 871 872 872 872 872 873 873 873 873 874 874 873 873 873 873 874 873 873 873 873 873 873 873 872 872 872 871 871 870 869 869 867 866 865 864 862 862 861 860 860 858 857 856 854 852 850 848 847 846 844 842 841 840 838 837 836 835 834 833 832 831 831 830 829 829
858 858 859 860 860 861 862 862 863 863 864 864 865 866 866 867 867 868 868 869 869 870 870 870 870 870 871 871 871 872 872 871 871 871 871 871 871 871 871 871 871 871 871 871 870 870 870 869 868 868 867 866 864 863 862 861 860 859 859 858 857 855 854 853 851 849 847 846 845 842 840 839 838 836 834 833 833 832 831 830 829 829 828 828 827
856 856 857 857 858 859 860 860 861 861 862 862 863 863 864 865 865 866 866 866 867 867 868 868 868 868 868 869 869 869 869 869 869 869 869 869 869 869 869 869 869 869 869 869 868 868 867 867 866 866 865 864 862 861 860 859 858 858 857 856 855 854 853 852 850 848 846 845 844 841 837 836 836 835 832 831 831 830 829 828 827 827 826 826 825
854 854 855 855 856 857 857 858 859 860 860 860 860 861 862 862 863 864 864 864 865 865 865 866 866 866 866 866 866 867 867 867 867 867 866 866 866 866 866 866 866 866 866 866 866 866 865 865 864 863 862 862 860 859 859 858 857 856 855 853 853 852 851 849 848 846 844 844 842 840 836 834 834 833 830 829 828 828 827 826 825 825 824 824 823
853 854 854 855 855 855 855 856 857 857 857 857 858 859 860 860 861 861 862 863 863 863 863 864 864 864 864 864 864 864 864 864 864 864 864 864 863 863 863 863 863 863 863 863 863 863 863 862 861 860 860 859 858 857 857 857 855 854 853 852 851 850 848 847 845 843 842 842 841 838 834 832 833 832 828 827 826 825 825 825 824 823 822 821 821
853 853 854 854 854 853 853 854 855 855 855 856 856 857 857 859 860 860 861 861 862 862 862 862 862 862 862 862 862 862 862 862 862 862 862 861 861 860 860 860 859 859 859 859 859 859 859 859 858 857 857 857 856 855 855 854 853 852 852 850 849 848 846 844 842 840 839 838 839 837 833 830 831 830 826 825 825 823 823 823 822 821 820 819 819
852 852 853 853 853 853 852 853 853 854 855 855 855 855 855 856 858 859 860 861 861 861 861 861 861 861 861 860 860 860 859 859 860 860 860 859 858 858 857 857 856 856 855 855 856 856 855 855 854 854 853 853 853 853 852 852 851 850 849 848 847 846 844 841 839 837 836 835 835 835 832 829 829 828 825 823 823 821 820 820 820 819 818 818 817
851 851 852 852 852 852 852 852 852 853 854 855 855 855 855 855 855 857 859 860 860 860 859 859 859 859 859 858 858 857 857 857 857 858 858 857 856 855 854 854 853 852 851 852 852 852 852 851 851 850 850 850 850 850 850 849 849 848 847 845 844 844 842 840 838 835 834 833 833 833 832 828 827 826 823 821 820 819 817 817 817 817 817 816 816
850 850 851 851 852 852 852 852 852 852 853 854 855 855 855 854 854 854 856 858 859 859 859 858 857 857 856 856 856 855 855 854 855 855 855 855 853 853 852 851 850 849 848 849 849 848 848 847 847 846 846 846 846 846 846 846 846 845 844 842 841 841 840 838 836 834 831 829 829 831 830 826 825 825 822 819 817 816 815 815 815 815 815 814 814
849 850 850 851 851 851 851 851 851 852 853 853 854 854 854 853 853 853 854 855 857 858 857 857 856 855 855 854 854 854 853 852 852 852 852 852 851 851 850 849 848 847 846 847 846 845 844 844 843 843 842 842 842 842 842 842 842 841 840 839 838 838 836 835 834 833 830 826 826 828 827 824 823 823 822 819 815 812 812 813 813 812 812 812 811